Grand Marais, MN

3:04 PM CDT on April 30, 2017 (GMT -0500)
Grand Marais

Weather History for KGNA - July, 2013

Change the Weather History Date:

Saturday, July 13, 2013

  Actual Average (KCKC) Record (KCKC)
Temperature  
Mean Temperature 58 °F -  
Max Temperature 66 °F 71 °F 86 °F (1998)
Min Temperature 53 °F 51 °F 41 °F (2001)
Degree Days  
Heating Degree Days 6    
Growing Degree Days 8 (Base 50)    
Moisture  
Dew Point 55 °F    
Average Humidity 91    
Maximum Humidity 100    
Minimum Humidity 81    
Precipitation  
Precipitation 0.12 in - - ()
Sea Level Pressure  
Sea Level Pressure 30.02 in    
Wind  
Wind Speed 1 mph (SSW)    
Max Wind Speed 5 mph    
Max Gust Speed -    
Averages and records for this station are not official NWS values.
T = Trace of Precipitation, MM = Missing Value Source: NWS Daily Summary

Daily Weather History Graph

Daily Weather History Graph

Search for Another Location

Airport or City:

Trip Planner

Search our weather history database for the weather conditions in past years. The results will help you decide how hot, cold, wet, or windy it might be!

Date:

Astronomy

Jul. 13, 2013 Rise Set
Actual Time 5:16 AM CDT 8:56 PM CDT
Civil Twilight 4:37 AM CDT 9:36 PM CDT
Nautical Twilight 3:44 AM CDT 10:28 PM CDT
Astronomical Twilight 2:30 AM CDT 11:41 PM CDT
Moon 11:00 AM CDT (7/13) 11:08 PM CDT (7/13)
Length of Visible Light 16h 58m
Length of Day
15h 40m
Waxing Crescent, 26% of the Moon is Illuminated
Jul 13
Waxing Crescent
Jul 15
First Quarter
Jul 22
Full
Jul 29
Last Quarter
Aug 6
New

Hourly Weather History & Observations

Time (CDT) Temp. Dew Point Humidity Pressure Visibility Wind Dir Wind Speed Gust Speed Precip Events Conditions
12:56 AM 57.0 °F 54.0 °F 89% 29.95 in - Calm Calm - 0.04 in   Unknown
1:56 AM 57.9 °F 55.0 °F 90% 29.95 in - Calm Calm - 0.01 in   Unknown
2:56 AM 57.9 °F 55.0 °F 90% 29.94 in - Calm Calm - N/A   Unknown
3:56 AM 59.0 °F 57.0 °F 93% 29.92 in - Calm Calm - 0.03 in   Unknown
4:56 AM 55.0 °F 55.0 °F 100% 29.95 in - WSW 3.5 mph - 0.02 in   Unknown
5:56 AM 55.0 °F 55.0 °F 100% 29.97 in - Calm Calm - 0.02 in   Unknown
6:56 AM 54.0 °F 53.1 °F 97% 29.99 in - SW 3.5 mph - N/A   Unknown
7:56 AM 54.0 °F 53.1 °F 97% 30.01 in - Variable 4.6 mph - N/A   Unknown
8:56 AM 53.1 °F 52.0 °F 96% 30.02 in - Calm Calm - N/A   Unknown
9:56 AM 57.9 °F 57.0 °F 97% 30.03 in - Calm Calm - N/A   Unknown
10:56 AM 55.9 °F 55.0 °F 97% 30.03 in - Calm Calm - N/A   Unknown
11:56 AM 55.0 °F 53.1 °F 93% 30.04 in - Calm Calm - N/A   Unknown
12:56 PM 55.9 °F 54.0 °F 93% 30.04 in - Calm Calm - N/A   Unknown
1:56 PM 57.0 °F 53.1 °F 87% 30.04 in - East 3.5 mph - N/A   Unknown
2:56 PM 61.0 °F 55.9 °F 83% 30.05 in - Calm Calm - N/A   Unknown
3:56 PM 64.9 °F 60.1 °F 84% 30.04 in - Calm Calm - N/A   Unknown
4:56 PM 63.0 °F 57.0 °F 81% 30.04 in - SE 4.6 mph - N/A   Unknown
5:56 PM 57.0 °F 53.1 °F 87% 30.04 in - Calm Calm - N/A   Unknown
6:56 PM 59.0 °F 55.0 °F 87% 30.05 in - Calm Calm - N/A   Unknown
7:56 PM 60.1 °F 55.9 °F 86% 30.04 in - Calm Calm - N/A   Unknown
8:56 PM 60.1 °F 57.0 °F 90% 30.04 in - Calm Calm - N/A   Unknown
9:56 PM 63.0 °F 60.1 °F 90% 30.04 in - NW 4.6 mph - N/A   Unknown
10:56 PM 57.9 °F 55.0 °F 90% 30.09 in - Calm Calm - N/A   Unknown
11:56 PM 55.9 °F 54.0 °F 93% 30.10 in - Calm Calm - N/A   Unknown